(35845) = 1996 VY30 = 1999 JM60

Discovered at Socorro on 1999-05-10 by LINEAR.

Orbit

Orbit type: Main Belt

Note: WebGL enabled browser required.

epoch2024-03-31.0
epoch JD2460400.5
perihelion date2025-01-14.03386
perihelion JD2460689.53386
argument of perihelion (°)84.36211
ascending node (°)246.58687
inclination (°)11.71460
eccentricity0.1326755
perihelion distance (AU)2.2357885
Tisserand w.r.t. Jupiter3.4
ΔV w.r.t. Earth (km/sec)10.0
semimajor axis (AU)2.5777993
mean anomaly (°)291.16982
mean daily motion (°/day)0.23813880
aphelion distance (AU)2.920
period (years)4.14
P-vector [x]0.85516620
P-vector [y]-0.51833438
P-vector [z]-0.00449806
Q-vector [x]0.48371045
Q-vector [y]0.79486323
Q-vector [z]0.36635590
absolute magnitude14.37
phase slope0.15
uncertainty0
referenceMPEC 2024-C115
observations used2371
oppositions20
arc length (days)9697
first opposition used1996
last opposition used2023
residual rms (arc-secs)0.59
perturbers coarse indicatorM-v
perturbers precise indicator003Ek
first observation date used1996-11-02.0
last observation date used2023-05-23.0
computer nameMPCLINUX
JD of orbit computation2456700.179486
perihelion JD uncertainty (days)6.9383E-05
argument of perihelion uncertainty (°)2.8960E-05
ascending node uncertainty (°)2.3202E-05
inclination uncertainty (°)4.2903E-06
eccentricity uncertainty 4.3614E-08
perihelion distance uncertainty (AU)1.1453E-07
Minimum Orbit Intersection Distances (in AU)
for orbit epoch: 2460200.5, reference: E2024-CB5
Mercury1.84681
Venus1.54315
Earth1.26085
Mars0.93114
Jupiter2.4329
Saturn6.30077
Uranus15.6157
Neptune27.3307

Observations

2400 total observations over interval: 1996 11 02.77892 – 2023 05 23.161807
These data are available for download (format description).

Date (UT) J2000 RA J2000 Dec Magn Location Ref
1996 11 02.77892 03 48 08.44 +24 52 50.1   327 – Peking Observatory, Xinglong Station MPC 28359
1996 11 02.79367 03 48 07.63 +24 52 43.0 17.7 V 327 – Peking Observatory, Xinglong Station MPC 28359
1996 11 02.80867 03 48 06.80 +24 52 37.1   327 – Peking Observatory, Xinglong Station MPC 28359
1996 11 13.69402 03 37 46.71 +23 29 20.0 17.8 V 327 – Peking Observatory, Xinglong Station MPC 28359
1996 11 13.71568 03 37 45.42 +23 29 09.2   327 – Peking Observatory, Xinglong Station MPC 28359
1996 11 13.73903 03 37 44.02 +23 28 57.8   327 – Peking Observatory, Xinglong Station MPC 28359
1996 11 28.70566 03 23 32.61 +21 21 25.6   327 – Peking Observatory, Xinglong Station MPS 4793
1996 11 28.71872 03 23 31.89 +21 21 18.7   327 – Peking Observatory, Xinglong Station MPS 4793
1996 11 28.73605 03 23 30.99 +21 21 09.6 17.6 V 327 – Peking Observatory, Xinglong Station MPS 4793
1996 11 28.74039 03 23 30.74 +21 21 07.9   327 – Peking Observatory, Xinglong Station MPS 4793
1996 12 17.47539 03 11 10.77 +18 56 14.9 19.2 V 566 – Haleakala-NEAT/GEODSS MPS 4793
1996 12 17.48378 03 11 10.55 +18 56 11.5 19.2 V 566 – Haleakala-NEAT/GEODSS MPS 4793
1996 12 17.49220 03 11 10.37 +18 56 08.1 18.8 V 566 – Haleakala-NEAT/GEODSS MPS 4793
1999 05 10.34398 16 30 46.33 -23 38 12.6 18.6   704 – Lincoln Laboratory ETS, New Mexico MPS 5084
1999 05 10.35614 16 30 45.68 -23 38 06.6 19.0   704 – Lincoln Laboratory ETS, New Mexico MPS 5084
1999 05 10.36833 16 30 45.02 -23 38 03.9 18.8   704 – Lincoln Laboratory ETS, New Mexico MPS 5084
1999 05 10.39270 16 30 43.90 -23 37 55.9 18.8   704 – Lincoln Laboratory ETS, New Mexico MPS 5084
1999 05 13.37824 16 28 19.75 -23 18 59.7 18.3   704 – Lincoln Laboratory ETS, New Mexico MPS 5084
1999 05 13.39332 16 28 18.86 -23 18 52.1 19.1   704 – Lincoln Laboratory ETS, New Mexico MPS 5084
1999 05 13.40842 16 28 18.16 -23 18 46.8 19.1   704 – Lincoln Laboratory ETS, New Mexico MPS 5084
1999 05 13.42349 16 28 17.51 -23 18 39.5 19.2   704 – Lincoln Laboratory ETS, New Mexico MPS 5084
1999 05 18.29663 16 24 03.33 -22 45 50.5 18.0   704 – Lincoln Laboratory ETS, New Mexico MPS 5084
1999 05 18.31060 16 24 02.68 -22 45 43.6 18.8   704 – Lincoln Laboratory ETS, New Mexico MPS 5084
1999 05 18.32449 16 24 01.71 -22 45 38.2 18.1   704 – Lincoln Laboratory ETS, New Mexico MPS 5084
1999 05 18.33839 16 24 01.03 -22 45 33.4 18.1   704 – Lincoln Laboratory ETS, New Mexico MPS 5084
1999 05 18.35226 16 24 00.18 -22 45 28.8 18.2   704 – Lincoln Laboratory ETS, New Mexico MPS 5084
1999 05 19.30012 16 23 08.76 -22 38 49.3 18.3   704 – Lincoln Laboratory ETS, New Mexico MPS 5084
1999 05 19.31416 16 23 07.86 -22 38 41.2 18.0   704 – Lincoln Laboratory ETS, New Mexico MPS 5084
1999 05 19.32834 16 23 07.13 -22 38 36.7 18.0   704 – Lincoln Laboratory ETS, New Mexico MPS 5084
1999 05 19.34239 16 23 06.15 -22 38 30.9 18.2   704 – Lincoln Laboratory ETS, New Mexico MPS 5084
1999 05 19.35641 16 23 05.35 -22 38 26.0 18.2   704 – Lincoln Laboratory ETS, New Mexico MPS 5084
1999 06 05.33534 16 07 06.53 -20 30 54.6 17.8 R 699 – Lowell Observatory-LONEOS MPS 5600
1999 06 05.34807 16 07 05.81 -20 30 49.6   699 – Lowell Observatory-LONEOS MPS 5600
1999 06 05.36079 16 07 05.09 -20 30 42.9   699 – Lowell Observatory-LONEOS MPS 5600
1999 06 09.30877 16 03 34.80 -20 00 33.7 18.3   704 – Lincoln Laboratory ETS, New Mexico MPS 5084
1999 06 09.31827 16 03 34.27 -20 00 30.4 18.8   704 – Lincoln Laboratory ETS, New Mexico MPS 5084
1999 06 09.32761 16 03 33.83 -20 00 25.0 18.7   704 – Lincoln Laboratory ETS, New Mexico MPS 5084
1999 06 09.33694 16 03 33.18 -20 00 21.1 18.4   704 – Lincoln Laboratory ETS, New Mexico MPS 5084
1999 06 09.34628 16 03 32.75 -20 00 17.5 19.1   704 – Lincoln Laboratory ETS, New Mexico MPS 5084
1999 06 15.22968 15 58 45.70 -19 16 39.6 18.3   704 – Lincoln Laboratory ETS, New Mexico MPS 5084
1999 06 15.24183 15 58 45.12 -19 16 34.3 18.5   704 – Lincoln Laboratory ETS, New Mexico MPS 5084
1999 06 15.26614 15 58 43.96 -19 16 23.7 19.4   704 – Lincoln Laboratory ETS, New Mexico MPS 5084
1999 06 15.27832 15 58 43.41 -19 16 18.9 18.5   704 – Lincoln Laboratory ETS, New Mexico MPS 5084
2000 09 03.37656 02 40 06.08 +27 15 51.4 18.4   704 – Lincoln Laboratory ETS, New Mexico MPS 17578
2000 09 03.38937 02 40 06.29 +27 15 52.8 19.4   704 – Lincoln Laboratory ETS, New Mexico MPS 17578
2000 09 03.40239 02 40 06.57 +27 15 54.5 19.5   704 – Lincoln Laboratory ETS, New Mexico MPS 17578
2000 09 03.41540 02 40 06.87 +27 15 56.7 19.3   704 – Lincoln Laboratory ETS, New Mexico MPS 17578
2000 09 03.42873 02 40 07.10 +27 15 58.5 18.8   704 – Lincoln Laboratory ETS, New Mexico MPS 17578
2000 09 22.41157 02 41 25.17 +27 25 04.2 17.6 R 699 – Lowell Observatory-LONEOS MPS 29929
2000 09 22.43648 02 41 24.80 +27 25 01.8   699 – Lowell Observatory-LONEOS MPS 29929
2000 09 22.46145 02 41 24.40 +27 25 00.0   699 – Lowell Observatory-LONEOS MPS 29929
2000 09 22.48649 02 41 24.03 +27 24 57.6   699 – Lowell Observatory-LONEOS MPS 29929
2000 09 27.32872 02 39 55.59 +27 15 04.0 18.2   704 – Lincoln Laboratory ETS, New Mexico MPS 19070
2000 09 27.34330 02 39 55.20 +27 15 01.9 18.6   704 – Lincoln Laboratory ETS, New Mexico MPS 19070
2000 09 27.35789 02 39 54.83 +27 14 59.0 18.8   704 – Lincoln Laboratory ETS, New Mexico MPS 19070
2000 09 27.37265 02 39 54.46 +27 14 57.0 18.5   704 – Lincoln Laboratory ETS, New Mexico MPS 19070
2000 09 27.38724 02 39 54.05 +27 14 54.8 18.6   704 – Lincoln Laboratory ETS, New Mexico MPS 19070
2000 10 03.40124 02 37 05.07 +26 54 46.4 18.1   704 – Lincoln Laboratory ETS, New Mexico MPS 19070
2000 10 03.41602 02 37 04.52 +26 54 42.8 18.0   704 – Lincoln Laboratory ETS, New Mexico MPS 19070
2000 10 03.43073 02 37 04.00 +26 54 39.0 17.9   704 – Lincoln Laboratory ETS, New Mexico MPS 19070
2000 10 03.44573 02 37 03.48 +26 54 35.1 18.2   704 – Lincoln Laboratory ETS, New Mexico MPS 19070
2000 10 03.46190 02 37 02.93 +26 54 31.1 18.3   704 – Lincoln Laboratory ETS, New Mexico MPS 19070
2000 10 25.29651 02 20 12.47 +24 29 02.3 17.4   704 – Lincoln Laboratory ETS, New Mexico MPS 20799
2000 10 25.30998 02 20 11.61 +24 28 55.0 17.2   704 – Lincoln Laboratory ETS, New Mexico MPS 20799
2000 10 25.32346 02 20 10.91 +24 28 47.6 17.2   704 – Lincoln Laboratory ETS, New Mexico MPS 20799
2000 10 25.33695 02 20 10.14 +24 28 40.3 17.0   704 – Lincoln Laboratory ETS, New Mexico MPS 20799
2000 10 25.35044 02 20 09.36 +24 28 32.7 17.1   704 – Lincoln Laboratory ETS, New Mexico MPS 20799
2000 11 03.21470 02 12 12.46 +23 03 29.6 17.3   704 – Lincoln Laboratory ETS, New Mexico MPS 20799
2000 11 03.22819 02 12 11.74 +23 03 21.7 17.3   704 – Lincoln Laboratory ETS, New Mexico MPS 20799
2000 11 03.24167 02 12 11.02 +23 03 13.4 17.6   704 – Lincoln Laboratory ETS, New Mexico MPS 20799
2000 11 03.25516 02 12 10.27 +23 03 05.2 17.5   704 – Lincoln Laboratory ETS, New Mexico MPS 20799
2000 11 03.26865 02 12 09.53 +23 02 57.4 17.4   704 – Lincoln Laboratory ETS, New Mexico MPS 20799
2000 11 20.22044 01 59 36.32 +20 09 08.0 17.6   704 – Lincoln Laboratory ETS, New Mexico MPS 22218
2000 11 20.23531 01 59 35.78 +20 08 59.2 17.7   704 – Lincoln Laboratory ETS, New Mexico MPS 22218
2000 11 20.25018 01 59 35.23 +20 08 50.2 17.6   704 – Lincoln Laboratory ETS, New Mexico MPS 22218
2000 11 20.26503 01 59 34.73 +20 08 41.4 17.7   704 – Lincoln Laboratory ETS, New Mexico MPS 22218
2000 11 20.27989 01 59 34.19 +20 08 32.6 17.8   704 – Lincoln Laboratory ETS, New Mexico MPS 22218
2000 11 28.21769 01 55 55.23 +18 53 31.6 18.6   704 – Lincoln Laboratory ETS, New Mexico MPS 22218
2000 11 28.23269 01 55 54.90 +18 53 23.4 18.4   704 – Lincoln Laboratory ETS, New Mexico MPS 22218
2000 11 28.24864 01 55 54.49 +18 53 14.6 19.2   704 – Lincoln Laboratory ETS, New Mexico MPS 22218
2000 11 28.27974 01 55 53.81 +18 52 58.4 18.9   704 – Lincoln Laboratory ETS, New Mexico MPS 22218
2000 12 17.09648 01 54 24.14 +16 37 38.3 17.9 R 699 – Lowell Observatory-LONEOS MPS 24905
2000 12 17.11989 01 54 24.33 +16 37 31.1   699 – Lowell Observatory-LONEOS MPS 24905
2000 12 17.14326 01 54 24.56 +16 37 23.0   699 – Lowell Observatory-LONEOS MPS 24905
2000 12 17.16666 01 54 24.86 +16 37 15.8   699 – Lowell Observatory-LONEOS MPS 24905
